Location: Hall+in+Tirol
(47.2830°N, 11.5170°E)
Time: 18:35:16
(UTC+02:00)

Gurwin Techsat 1B - Visible Passes

Search period start: 24 April 2018 00:00
Search period end: 04 May 2018 00:00
Orbit: 812 x 814 km, 98.6° (Epoch: 23 April)

Date Brightness Start Highest point End Pass type
(mag) Time Alt. Az. Time Alt. Az. Time Alt. Az.
24 Apr 10.2 02:11:13 10° NE 02:15:33 25° E 02:16:20 24° ESE visible
24 Apr 8.9 03:50:36 10° N 03:55:45 52° WNW 03:57:32 36° WSW visible
25 Apr 10.7 01:49:15 10° NE 01:52:26 16° E 01:53:19 15° E visible
25 Apr 8.5 03:27:40 10° NNE 03:33:00 79° WNW 03:34:32 48° SSW visible
25 Apr 10.6 05:09:25 10° NNW 05:12:06 14° NW 05:14:46 10° W visible
26 Apr 8.7 03:04:50 10° NNE 03:10:10 69° ESE 03:11:30 49° SSE visible
26 Apr 10.2 04:45:46 10° NNW 04:49:35 21° WNW 04:52:43 13° W visible
27 Apr 9.3 02:42:09 10° NNE 02:47:15 44° E 02:48:29 38° SE visible
27 Apr 9.7 04:22:27 10° N 04:27:01 30° WNW 04:29:42 19° WSW visible
28 Apr 9.9 02:19:40 10° NE 02:24:16 29° E 02:25:27 26° ESE visible
28 Apr 9.2 03:59:19 10° N 04:04:21 44° WNW 04:06:40 28° WSW visible
29 Apr 10.5 01:57:30 10° NE 02:01:11 19° E 02:02:26 17° ESE visible
29 Apr 8.6 03:36:20 10° N 03:41:38 67° WNW 03:43:39 38° SW visible
29 Apr 10.7 05:18:36 10° NNW 05:20:36 12° NW 05:22:36 10° WNW visible
30 Apr 11.0 01:36:09 10° ENE 01:38:02 12° E 01:39:24 11° ESE visible
30 Apr 8.6 03:13:28 10° NNE 03:18:49 81° ESE 03:20:37 43° S visible
30 Apr 10.4 04:54:40 10° NNW 04:58:07 18° WNW 05:01:35 10° W visible
01 May 9.1 02:50:44 10° NNE 02:55:57 52° E 02:57:35 38° SSE visible
01 May 9.9 04:31:15 10° N 04:35:34 26° WNW 04:38:49 15° WSW visible
02 May 9.8 02:28:09 10° NNE 02:32:59 34° E 02:34:34 28° SE visible
02 May 9.4 04:08:04 10° N 04:12:57 38° WNW 04:15:46 22° WSW visible
03 May 10.3 02:05:50 10° NE 02:09:56 22° E 02:11:32 19° ESE visible
03 May 8.8 03:45:01 10° N 03:50:14 57° WNW 03:52:45 30° SW visible
